Hourly Data Report for March 22, 2015

All times are specified in Local Standard Time (LST). Add 1 hour to adjust for Daylight Saving Time where and when it is observed.

MIRAMICHI RCS
NEW BRUNSWICK

47°00'34.000" N
65°27'54.000" W
33.00 m
8100989
71744
ACQ

Download Data

Hourly Data (March 2015)
Hourly Data Report for March 22, 2015
TIME Temp Definition
°C
Dew Point Definition
°C
Rel Hum Definition
%
Wind Dir Definition
10's deg

Wind Spd Definition
km/h
Visibility Definition
km
Stn Press Definition
kPa
Hmdx Definition


Wind Chill Definition


Weather Definition


00:00 -1.5 -3.3 88 9 6   100.19   -4 LegendNANA
01:00 -1.7 -2.8 92 1 5   100.02   -4 LegendNANA
02:00 -1.9 -2.8 93 4 7   99.88   -5 LegendNANA
03:00 -1.7 -2.6 94 35 5   99.70   -4 LegendNANA
04:00 -1.7 -2.5 94 34 5   99.51   -4 LegendNANA
05:00 -1.6 -2.5 94 34 5   99.38   -3 LegendNANA
06:00 -1.6 -2.5 94 33 6   99.23   -4 LegendNANA
07:00 -1.6 -2.6 93 31 10   99.05   -5 LegendNANA
08:00 -1.8 -2.7 93 29 15   98.90   -7 LegendNANA
09:00 -1.7 -2.7 93 30 13   98.80   -6 LegendNANA
10:00 -1.3 -2.2 93 29 14   98.69   -6 LegendNANA
11:00 -3.4 -4.7 91 26 29   98.63   -11 LegendNANA
12:00 -6.4 -9.3 80 28 33   98.67   -15 LegendNANA
13:00 -8.2 -10.5 83 29 33   98.71   -18 LegendNANA
14:00 -9.2 -11.1 86 28 31   98.73   -19 LegendNANA
15:00 -9.7 -11.7 86 29 29   98.79   -19 LegendNANA
16:00 -10.3 -13.1 80 28 35   98.86   -21 LegendNANA
17:00 -11.3 -14.7 76 28 35   99.03   -22 LegendNANA
18:00 -12.0 -14.6 81 27 31   99.15   -22 LegendNANA
19:00 -12.0 -15.1 78 27 32   99.19   -22 LegendNANA
20:00 -12.2 -15.7 75 27 32   99.23   -23 LegendNANA
21:00 -12.4 -15.7 76 27 30   99.28   -23 LegendNANA
22:00 -12.5 -16.3 73 27 31   99.28   -23 LegendNANA
23:00 -12.7 -16.9 71 27 25   99.28   -22 LegendNANA

Notes on Data Quality.

Legend

  • E = Estimated
  • M = Missing
  • NA = Not Available
Date modified: